This demonstration page uses our WeatherBlox Daily Observations layout. Learn more.

41.55636, -103.73856

Hourly Observations for January 28, 2019

Temp ( °F °C ) Dew Point ( °F °C ) Humidity (%) Winds ( mph kmh ) Pressure ( in mb ) Visibility ( mi km ) Precip ( " mm )
12:58 am 00:58 Mostly Cloudy 42 5.5 25 -4.1 50 50 WNW 36 57 29.71 1006 10 16.0934 N/A
1:58 am 01:58 Cloudy 41 4.8 25 -3.8 54 54 NW 36 57 29.79 1009 10 16.0934 N/A
2:59 am 02:59 Cloudy with Light Rain 33 0.6 29 -1.5 86 86 NNW 29 46 29.88 1012 2.5 4.02335 N/A
3:58 am 03:58 Windy with Snow Likely 30 -1.1 28 -2.5 90 90 NNW 29 46 29.95 1014 5 8.0467 N/A
4:58 am 04:58 Mostly Cloudy with Scattered Snow Showers 29 -1.5 26 -3.1 89 89 NW 24 39 29.96 1015 10 16.0934 N/A
5:58 am 05:58 Cloudy 29 -1.7 26 -3.1 90 90 NW 21 33 29.96 1015 10 16.0934 N/A
6:58 am 06:58 Cloudy 29 -1.6 25 -3.8 85 85 NW 24 39 29.98 1015 10 16.0934 N/A
7:58 am 07:58 Mostly Cloudy 29 -1.8 24 -4.7 81 81 NNW 24 39 29.98 1015 10 16.0934 N/A
8:58 am 08:58 Mostly Cloudy 26 -3.2 21 -6.1 81 81 N 20 31 30.01 1016 10 16.0934 N/A
9:58 am 09:58 Mostly Cloudy 24 -4.3 19 -7.4 79 79 N 22 35 30.06 1018 10 16.0934 N/A
10:58 am 10:58 Windy with Snow Showers Likely 25 -4.1 18 -8 75 75 N 28 44 30.07 1018 10 16.0934 N/A
11:58 am 11:58 Mostly Cloudy 23 -5 16 -8.9 74 74 NNW 20 31 30.11 1020 10 16.0934 N/A
12:58 pm 12:58 Mostly Cloudy 21 -6 12 -10.9 69 69 NNW 26 43 30.16 1021 10 16.0934 N/A
1:58 pm 13:58 Mostly Cloudy 20 -6.7 11 -11.6 68 68 NNW 21 33 30.22 1023 10 16.0934 N/A
2:58 pm 14:58 Mostly Cloudy 19 -7.5 12 -11 76 76 N 26 43 30.29 1026 10 16.0934 N/A
3:58 pm 15:58 Windy with Snow Showers Likely 19 -7.5 12 -11 76 76 N 28 44 30.32 1027 10 16.0934 N/A
4:58 pm 16:58 Windy with Snow Showers Likely 20 -6.5 13 -10.6 73 73 NNW 31 50 30.29 1026 10 16.0934 N/A
5:58 pm 17:58 Windy with Snow Showers Likely 22 -5.8 12 -11 67 67 NNW 33 54 30.32 1027 10 16.0934 N/A
6:58 pm 18:58 Windy with Snow Showers Likely 22 -5.6 12 -11.3 65 65 NNW 28 44 30.33 1027 10 16.0934 N/A
7:58 pm 19:58 Mostly Cloudy 21 -6 10 -12.2 62 62 N 31 50 30.31 1026 10 16.0934 N/A
8:58 pm 20:58 Sunny 22 -5.7 8 -13.4 55 55 NNW 38 61 30.3 1026 10 16.0934 N/A
9:58 pm 21:58 Sunny 22 -5.6 9 -13 56 56 NNW 30 48 30.3 1026 10 16.0934 N/A
10:58 pm 22:58 Sunny 21 -6.2 7 -14.1 54 54 NNW 28 44 30.31 1026 10 16.0934 N/A

Powered by AerisWeather